period_start,C,m1,H,J0,J1,J2,J3,J4,J5,JA,JB,JC,JD,JJ,JK,JN,#
2015-10-27 00:02:28,0.08,2.21,0.00,18.53,24.38,28.33,14.80,47.52,1009.33,2045.17,2792.92,2697.30,2921.31,600.01,600.82,48.69,0000 0000 0000 0000 000000
2015-10-27 00:07:29,0.08,2.22,0.00,18.52,24.37,28.34,14.83,47.37,1009.29,2045.27,2791.84,2696.59,2920.41,600.12,600.85,48.74,0000 0000 0000 0000 000000
2015-10-27 00:12:31,0.09,2.22,0.00,18.50,24.36,28.32,14.69,47.63,1009.29,2045.70,2790.81,2695.94,2919.72,599.53,600.37,48.79,0000 0000 0000 0000 000000
2015-10-27 00:17:32,0.08,2.23,0.00,18.49,24.35,28.31,14.78,47.64,1009.29,2045.80,2789.79,2695.05,2918.84,600.04,600.93,48.84,0000 0000 0000 0000 000000
2015-10-27 00:22:33,0.08,2.23,0.00,18.50,24.35,28.33,14.74,47.57,1009.29,2045.87,2788.58,2694.11,2917.83,599.84,600.72,48.89,0000 0000 0000 0000 000000
2015-10-27 00:27:34,0.07,2.24,0.00,18.51,24.33,28.32,14.73,47.50,1009.23,2045.96,2787.56,2693.45,2916.96,599.48,600.27,48.94,0000 0000 0000 0000 000000
2015-10-27 00:32:35,0.07,2.24,0.00,18.53,24.32,28.22,14.83,47.66,1009.09,2045.97,2786.40,2692.58,2916.03,600.04,600.77,48.99,0000 0000 0000 0000 000000
2015-10-27 00:37:37,0.06,2.24,0.00,18.55,24.32,28.25,14.78,47.64,1008.86,2045.98,2785.39,2691.81,2915.06,600.19,600.71,49.04,0000 0000 0000 0000 000000
2015-10-27 00:42:38,0.06,2.25,0.00,18.57,24.30,28.21,14.74,47.58,1008.85,2045.97,2784.22,2690.90,2914.06,600.13,600.60,49.09,0000 0000 0000 0000 000000
2015-10-27 00:47:39,0.06,2.25,0.00,18.59,24.30,28.16,14.69,47.44,1008.81,2045.97,2783.00,2690.00,2913.04,599.56,599.95,49.14,0000 0000 0000 0000 000000
2015-10-27 00:52:40,0.08,2.25,0.00,18.59,24.30,28.14,14.75,47.58,1008.80,2045.98,2781.85,2689.09,2912.11,600.02,600.43,49.19,0000 0000 0000 0000 000000
2015-10-27 00:57:42,0.07,2.26,0.00,18.62,24.30,28.13,14.74,47.52,1008.70,2045.99,2780.74,2688.34,2911.24,599.99,600.27,49.24,0000 0000 0000 0000 000000
2015-10-27 01:02:43,0.08,2.26,0.00,18.64,24.30,28.11,14.78,47.58,1008.36,2045.99,2779.57,2687.54,2910.15,599.78,599.84,49.29,0000 0000 0000 0000 000000
2015-10-27 01:07:45,0.10,2.27,0.00,18.64,24.30,28.06,14.70,47.72,1008.30,2045.99,2777.97,2686.31,2908.71,599.94,599.93,49.34,0000 0000 0000 0000 000000
2015-10-27 01:12:46,0.09,2.27,0.00,18.64,24.30,28.04,14.77,47.66,1008.10,2045.98,2776.42,2684.93,2907.31,600.40,600.32,49.39,0000 0000 0000 0000 000000
2015-10-27 01:17:47,0.13,2.28,0.00,18.62,24.30,28.04,14.66,47.70,1007.83,2045.99,2774.45,2683.44,2905.48,599.30,599.06,49.44,0000 0000 0000 0000 000000
2015-10-27 01:22:48,0.14,2.28,0.00,18.62,24.30,28.09,14.71,47.54,1007.83,2045.99,2772.64,2681.68,2903.68,599.86,599.67,49.49,0000 0000 0000 0000 000000
2015-10-27 01:27:49,0.15,2.29,0.00,18.62,24.30,28.08,14.73,47.89,1007.82,2045.99,2770.67,2679.84,2901.70,600.16,600.04,49.54,0000 0000 0000 0000 000000
2015-10-27 01:32:51,0.09,2.30,0.00,18.60,24.30,28.08,14.67,47.65,1007.82,2045.99,2769.05,2678.21,2899.97,599.82,599.53,49.60,0000 0000 0000 0000 000000
2015-10-27 01:37:52,0.09,2.30,0.00,18.58,24.30,28.17,14.74,47.73,1007.85,2045.99,2767.73,2677.12,2898.72,600.13,599.98,49.65,0000 0000 0000 0000 000000
2015-10-27 01:42:53,0.09,2.31,0.00,18.57,24.30,28.08,14.74,47.66,1007.98,2045.98,2766.40,2675.96,2897.49,600.05,599.95,49.70,0000 0000 0000 0000 000000
2015-10-27 01:47:54,0.09,2.31,0.00,18.57,24.30,28.13,14.74,47.70,1007.99,2045.99,2765.08,2674.78,2896.24,600.38,600.35,49.75,0000 0000 0000 0000 000000
2015-10-27 01:52:56,0.08,2.32,0.00,18.56,24.30,28.10,14.72,47.84,1008.11,2045.99,2763.78,2673.78,2895.08,600.06,600.07,49.80,0000 0000 0000 0000 000000
2015-10-27 01:57:57,0.07,2.32,0.00,18.56,24.30,28.08,14.76,47.92,1008.04,2045.99,2762.69,2672.88,2894.05,600.29,600.35,49.85,0000 0000 0000 0000 000000
2015-10-27 02:02:58,0.07,2.32,0.00,18.57,24.30,28.13,14.80,47.86,1007.86,2045.99,2761.51,2672.03,2893.10,600.27,600.15,49.90,0000 0000 0000 0000 000000
2015-10-27 02:08:00,0.08,2.33,0.00,18.57,24.30,28.11,14.73,47.80,1007.83,2045.99,2760.21,2671.08,2892.08,599.92,599.94,49.95,0000 0000 0000 0000 000000
2015-10-27 02:13:01,0.07,2.33,0.00,18.57,24.30,28.11,14.84,47.90,1007.75,2045.99,2758.97,2670.08,2891.02,600.52,600.36,50.00,0000 0000 0000 0000 000000
2015-10-27 02:18:02,0.08,2.34,0.00,18.57,24.29,28.09,14.81,47.82,1007.48,2045.99,2757.64,2669.23,2890.05,600.35,600.01,50.05,0000 0000 0000 0000 000000
2015-10-27 02:23:04,0.07,2.34,0.00,18.57,24.29,28.08,14.73,47.92,1007.35,2045.99,2756.65,2668.29,2889.01,599.72,599.29,50.10,0000 0000 0000 0000 000000
2015-10-27 02:28:05,0.07,2.34,0.00,18.54,24.29,28.10,14.75,47.90,1007.36,2045.99,2755.33,2667.37,2887.96,600.09,599.59,50.15,0000 0000 0000 0000 000000
2015-10-27 02:33:06,0.09,2.35,0.00,18.54,24.29,28.03,14.76,47.82,1007.34,2045.99,2753.97,2666.23,2886.77,599.79,599.37,50.20,0000 0000 0000 0000 000000
2015-10-27 02:38:07,0.07,2.35,0.00,18.54,24.28,28.12,14.75,47.91,1007.34,2045.99,2752.84,2665.41,2885.83,600.25,599.92,50.25,0000 0000 0000 0000 000000
2015-10-27 02:43:08,0.05,2.35,0.00,18.54,24.28,28.16,14.75,47.90,1007.34,2045.99,2751.78,2664.73,2884.97,600.25,599.78,50.30,0000 0000 0000 0000 000000
2015-10-27 02:48:09,0.06,2.36,0.00,18.54,24.27,28.10,14.66,47.83,1007.24,2045.99,2750.72,2663.87,2884.03,599.80,599.50,50.35,0000 0000 0000 0000 000000
2015-10-27 02:53:11,0.07,2.36,0.00,18.54,24.27,28.07,14.77,47.83,1007.07,2045.99,2749.56,2662.98,2883.09,600.25,599.71,50.40,0000 0000 0000 0000 000000
2015-10-27 02:58:12,0.07,2.37,0.00,18.55,24.27,28.04,14.77,48.12,1006.91,2045.99,2748.42,2662.10,2882.20,600.43,599.71,50.45,0000 0000 0000 0000 000000
2015-10-27 03:03:13,0.07,2.37,0.00,18.56,24.27,28.10,14.78,48.03,1006.87,2045.99,2747.07,2661.26,2881.20,600.18,599.53,50.50,0000 0000 0000 0000 000000
2015-10-27 03:08:15,0.07,2.37,0.00,18.57,24.27,28.08,14.74,47.85,1006.85,2045.99,2745.87,2660.41,2880.19,599.83,599.08,50.56,0000 0000 0000 0000 000000
2015-10-27 03:13:16,0.07,2.38,0.00,18.57,24.27,28.07,14.73,48.03,1006.85,2045.99,2744.66,2659.57,2879.30,600.13,599.37,50.61,0000 0000 0000 0000 000000
2015-10-27 03:18:17,0.07,2.38,0.00,18.57,24.27,28.04,14.70,48.11,1006.73,2046.00,2743.47,2658.64,2878.44,600.25,599.54,50.66,0000 0000 0000 0000 000000
2015-10-27 03:23:18,0.07,2.39,0.00,18.57,24.27,28.05,14.67,48.08,1006.65,2046.00,2742.15,2657.74,2877.34,599.75,598.89,50.71,0000 0000 0000 0000 000000
2015-10-27 03:28:20,0.07,2.39,0.00,18.57,24.27,28.06,14.74,48.13,1006.60,2046.00,2740.92,2656.79,2876.35,599.71,598.77,50.76,0000 0000 0000 0000 000000
2015-10-27 03:33:21,0.07,2.39,0.00,18.57,24.27,28.06,14.73,48.11,1006.40,2046.00,2739.64,2655.85,2875.30,599.87,599.02,50.81,0000 0000 0000 0000 000000
2015-10-27 03:38:22,0.08,2.40,0.00,18.54,24.27,28.07,14.72,48.06,1006.37,2046.00,2738.38,2654.84,2874.28,599.81,598.80,50.86,0000 0000 0000 0000 000000
2015-10-27 03:43:23,0.09,2.40,0.00,18.53,24.27,28.03,14.69,48.06,1006.34,2046.00,2736.90,2653.76,2873.03,600.18,599.22,50.91,0000 0000 0000 0000 000000
2015-10-27 03:48:25,0.10,2.41,0.00,18.52,24.27,28.00,14.74,48.08,1005.93,2046.00,2735.54,2652.61,2871.77,600.31,599.11,50.96,0000 0000 0000 0000 000000
2015-10-27 03:53:26,0.09,2.41,0.00,18.49,24.27,28.03,14.82,48.47,1005.87,2046.00,2733.96,2651.52,2870.58,600.28,598.97,51.01,0000 0000 0000 0000 000000
2015-10-27 03:58:27,0.09,2.42,0.00,18.46,24.27,28.01,14.73,48.23,1005.87,2046.00,2732.62,2650.40,2869.40,599.95,598.87,51.06,0000 0000 0000 0000 000000
2015-10-27 04:03:28,0.08,2.42,0.00,18.43,24.27,28.03,14.71,48.23,1005.77,2046.00,2731.21,2649.30,2868.17,600.02,598.81,51.11,0000 0000 0000 0000 000000
2015-10-27 04:08:30,0.11,2.43,0.00,18.41,24.27,27.97,14.72,48.02,1005.47,2046.01,2729.54,2647.98,2866.66,599.88,598.63,51.16,0000 0000 0000 0000 000000
2015-10-27 04:13:31,0.09,2.43,0.00,18.39,24.26,28.03,14.66,47.94,1005.83,2046.03,2728.25,2646.74,2865.49,599.63,598.70,51.21,0000 0000 0000 0000 000000
2015-10-27 04:18:32,0.10,2.44,0.00,18.39,24.25,28.04,14.72,48.12,1005.87,2046.02,2726.74,2645.49,2864.20,600.07,599.11,51.26,0000 0000 0000 0000 000000
2015-10-27 04:23:33,0.09,2.44,0.00,18.38,24.25,28.07,14.64,47.93,1005.88,2046.01,2725.41,2644.39,2862.79,599.57,598.61,51.31,0000 0000 0000 0000 000000
2015-10-27 04:28:35,0.07,2.45,0.00,18.37,24.25,28.05,14.71,47.90,1005.88,2046.02,2724.14,2643.41,2861.74,600.08,599.27,51.36,0000 0000 0000 0000 000000
2015-10-27 04:33:36,0.09,2.45,0.00,18.37,24.25,28.07,14.73,47.92,1005.87,2046.01,2722.77,2642.47,2860.67,599.67,598.92,51.41,0000 0000 0000 0000 000000
2015-10-27 04:38:37,0.08,2.45,0.00,18.37,24.24,28.02,14.77,48.06,1005.88,2046.02,2721.43,2641.46,2859.61,600.10,599.19,51.46,0000 0000 0000 0000 000000
2015-10-27 04:43:39,0.07,2.46,0.00,18.34,24.22,28.05,14.75,48.17,1005.88,2046.02,2720.21,2640.62,2858.60,599.79,598.98,51.51,0000 0000 0000 0000 000000
2015-10-27 04:48:40,0.08,2.46,0.00,18.33,24.22,28.00,14.79,48.12,1005.88,2046.03,2718.80,2639.65,2857.57,600.01,599.12,51.57,0000 0000 0000 0000 000000
2015-10-27 04:53:41,0.07,2.47,0.00,18.32,24.22,28.05,14.70,47.86,1005.87,2046.01,2717.52,2638.67,2856.46,599.82,599.01,51.62,0000 0000 0000 0000 000000
2015-10-27 04:58:43,0.06,2.47,0.00,18.32,24.22,28.05,14.71,47.82,1005.85,2046.06,2716.35,2637.88,2855.56,599.99,599.20,51.67,0000 0000 0000 0000 000000
2015-10-27 05:03:45,0.06,2.47,0.00,18.30,24.20,28.04,14.74,47.98,1005.75,2046.03,2715.08,2636.99,2854.57,600.03,599.11,51.72,0000 0000 0000 0000 000000
2015-10-27 05:08:46,0.08,2.48,0.00,18.29,24.20,28.02,14.75,47.81,1005.60,2046.08,2713.95,2636.14,2853.73,599.85,598.92,51.77,0000 0000 0000 0000 000000
2015-10-27 05:13:47,0.08,2.48,0.00,18.29,24.20,28.03,14.70,47.99,1005.41,2046.12,2712.78,2635.35,2852.83,600.14,599.14,51.82,0000 0000 0000 0000 000000
2015-10-27 05:18:48,0.07,2.49,0.00,18.29,24.18,27.99,14.73,48.07,1005.37,2046.10,2711.53,2634.47,2851.89,600.06,599.07,51.87,0000 0000 0000 0000 000000
2015-10-27 05:23:49,0.09,2.49,0.00,18.29,24.17,28.03,14.78,48.30,1005.06,2046.29,2710.32,2633.65,2850.89,600.15,599.03,51.92,0000 0000 0000 0000 000000
2015-10-27 05:28:50,0.09,2.50,0.00,18.29,24.17,28.03,14.71,48.13,1004.92,2046.40,2708.94,2632.75,2849.88,600.17,598.77,51.97,0000 0000 0000 0000 000000
2015-10-27 05:33:51,0.06,2.50,0.00,18.29,24.16,27.98,14.72,48.18,1004.91,2046.29,2707.71,2631.88,2848.92,599.88,598.42,52.02,0000 0000 0000 0000 000000
2015-10-27 05:38:53,0.13,2.51,0.00,18.27,24.15,27.97,14.81,47.92,1004.90,2046.84,2706.56,2630.96,2847.92,600.05,598.78,52.07,0000 0000 0000 0000 000000
2015-10-27 05:43:54,0.07,2.51,0.00,18.26,24.15,27.94,14.76,47.96,1004.89,2046.85,2705.28,2630.06,2846.88,600.17,598.96,52.12,0000 0000 0000 0000 000000
2015-10-27 05:48:55,0.08,2.51,0.00,18.24,24.15,27.93,14.69,47.93,1004.90,2046.89,2704.10,2629.15,2845.91,599.93,598.67,52.17,0000 0000 0000 0000 000000
2015-10-27 05:53:56,0.08,2.52,0.00,18.22,24.13,27.92,14.70,48.00,1004.89,2046.97,2702.86,2628.35,2844.97,599.77,598.61,52.22,0000 0000 0000 0000 000000
2015-10-27 05:58:58,0.07,2.52,0.00,18.22,24.12,27.93,14.68,47.94,1004.84,2046.96,2701.65,2627.46,2844.01,599.98,598.84,52.27,0000 0000 0000 0000 000000
2015-10-27 06:03:59,0.07,2.53,0.00,18.20,24.12,27.92,14.76,47.99,1004.76,2046.98,2700.50,2626.68,2843.08,600.17,598.91,52.32,0000 0000 0000 0000 000000
2015-10-27 06:09:00,0.07,2.53,0.00,18.19,24.11,27.91,14.69,48.00,1004.69,2046.97,2699.29,2625.80,2842.11,600.26,598.94,52.37,0000 0000 0000 0000 000000
2015-10-27 06:14:01,0.07,2.53,0.00,18.18,24.10,27.86,14.73,48.63,1004.44,2046.99,2697.94,2624.91,2841.14,600.33,598.64,52.42,0000 0000 0000 0000 000000
2015-10-27 06:19:03,0.08,2.54,0.00,18.17,24.10,27.88,14.78,47.99,1004.41,2046.99,2696.69,2624.01,2840.13,599.96,598.63,52.48,0000 0000 0000 0000 000000
2015-10-27 06:24:04,0.08,2.54,0.00,18.17,24.08,27.89,14.72,48.20,1004.40,2046.99,2695.41,2623.10,2839.10,600.03,598.58,52.53,0000 0000 0000 0000 000000
2015-10-27 06:29:06,0.10,2.55,0.00,18.15,24.07,27.86,14.80,48.32,1004.41,2046.99,2693.87,2622.16,2837.78,600.43,599.10,52.58,0000 0000 0000 0000 000000
2015-10-27 06:34:07,0.09,2.55,0.00,18.14,24.07,27.86,14.71,47.88,1004.41,2046.99,2692.55,2621.08,2836.63,599.90,598.58,52.63,0000 0000 0000 0000 000000
2015-10-27 06:39:08,0.08,2.56,0.00,18.13,24.05,27.82,14.72,48.01,1004.41,2046.99,2691.36,2620.09,2835.55,599.97,598.67,52.68,0000 0000 0000 0000 000000
2015-10-27 06:44:09,0.07,2.56,0.00,18.12,24.05,27.83,14.69,48.02,1004.39,2046.99,2690.18,2619.15,2834.59,599.50,598.20,52.73,0000 0000 0000 0000 000000
2015-10-27 06:49:10,0.08,2.56,0.00,18.09,24.04,27.85,14.76,48.09,1004.18,2046.99,2688.79,2618.25,2833.57,600.09,598.91,52.78,0000 0000 0000 0000 000000
2015-10-27 06:54:11,0.08,2.57,0.00,18.09,24.02,27.86,14.73,47.99,1003.95,2046.99,2687.42,2617.19,2832.44,599.82,598.45,52.83,0000 0000 0000 0000 000000
2015-10-27 06:59:13,0.08,2.57,0.00,18.07,24.02,27.82,14.79,48.03,1003.90,2046.99,2686.07,2616.28,2831.39,599.77,598.32,52.88,0000 0000 0000 0000 000000
2015-10-27 07:04:14,0.09,2.58,0.00,18.05,24.01,27.83,14.77,48.15,1003.81,2046.99,2684.56,2615.20,2830.15,600.07,598.61,52.93,0000 0000 0000 0000 000000
2015-10-27 07:09:15,0.09,2.58,0.00,18.03,24.00,27.86,14.69,48.11,1003.77,2046.99,2683.07,2613.98,2828.81,599.79,598.30,52.98,0000 0000 0000 0000 000000
2015-10-27 07:14:17,0.09,2.59,0.00,18.02,24.00,27.82,14.76,48.17,1003.89,2046.99,2681.69,2612.90,2827.73,600.24,599.09,53.03,0000 0000 0000 0000 000000
2015-10-27 07:19:18,0.08,2.59,0.00,18.01,23.97,27.78,14.74,47.97,1003.89,2046.99,2680.36,2611.95,2826.57,599.86,598.44,53.08,0000 0000 0000 0000 000000
2015-10-27 07:24:19,0.08,2.60,0.00,18.00,23.97,27.76,14.80,48.28,1003.86,2046.99,2678.98,2610.96,2825.49,600.38,599.04,53.13,0000 0000 0000 0000 000000
2015-10-27 07:29:20,0.09,2.60,0.00,17.99,23.96,27.76,14.77,48.11,1003.87,2047.00,2677.61,2609.94,2824.37,600.14,598.80,53.18,0000 0000 0000 0000 000000
2015-10-27 07:34:22,0.07,2.60,0.00,17.98,23.95,27.77,14.65,48.10,1003.72,2047.00,2676.34,2609.01,2823.25,599.74,598.36,53.23,0000 0000 0000 0000 000000
2015-10-27 07:39:23,0.08,2.61,0.00,17.97,23.95,27.77,14.72,48.16,1003.68,2047.01,2675.13,2608.06,2822.23,600.12,598.74,53.28,0000 0000 0000 0000 000000
2015-10-27 07:44:24,0.09,2.61,0.00,17.96,23.93,27.71,14.70,48.15,1003.80,2047.00,2673.77,2607.10,2821.17,599.68,598.40,53.33,0000 0000 0000 0000 000000
2015-10-27 07:49:26,0.08,2.62,0.00,17.95,23.92,27.73,14.66,47.86,1003.91,2047.02,2672.57,2606.27,2820.23,599.79,598.59,53.38,0000 0000 0000 0000 000000
2015-10-27 07:54:27,0.07,2.62,0.00,17.96,23.91,27.74,14.88,48.42,1003.87,2047.02,2671.45,2605.30,2819.15,600.59,599.35,53.43,0000 0000 0000 0000 000000
2015-10-27 07:59:28,0.07,2.63,0.00,17.97,23.90,27.74,14.71,48.28,1003.63,2047.02,2670.16,2604.42,2818.12,599.82,598.39,53.48,0000 0000 0000 0000 000000
2015-10-27 08:04:29,0.07,2.63,0.00,17.97,23.90,27.72,14.81,48.31,1003.48,2047.02,2669.07,2603.70,2817.25,599.99,598.56,53.54,0000 0000 0000 0000 000000
2015-10-27 08:09:30,0.08,2.63,0.00,17.98,23.88,27.70,14.75,48.24,1003.57,2047.04,2667.82,2602.83,2816.37,600.28,598.80,53.59,0000 0000 0000 0000 000000
2015-10-27 08:14:31,0.07,2.64,0.00,17.98,23.87,27.69,14.88,48.33,1003.52,2047.06,2666.67,2602.01,2815.56,600.59,599.02,53.64,0000 0000 0000 0000 000000
2015-10-27 08:19:33,0.07,2.64,0.00,17.99,23.87,27.65,14.76,48.33,1003.43,2047.06,2665.51,2601.15,2814.65,599.94,598.39,53.69,0000 0000 0000 0000 000000
2015-10-27 08:24:34,0.09,2.64,0.00,18.00,23.87,27.65,14.77,48.30,1003.41,2047.16,2664.34,2600.35,2813.79,600.13,598.59,53.74,0000 0000 0000 0000 000000
2015-10-27 08:29:35,0.09,2.65,0.00,18.00,23.85,27.65,14.67,48.22,1003.28,2047.35,2663.04,2599.54,2812.82,599.95,598.23,53.79,0000 0000 0000 0000 000000
2015-10-27 08:34:36,0.07,2.65,0.00,18.00,23.85,27.67,14.80,48.23,1003.07,2047.47,2661.88,2598.75,2811.90,600.23,598.45,53.84,0000 0000 0000 0000 000000
2015-10-27 08:39:38,0.05,2.66,0.00,18.01,23.85,27.61,14.79,48.31,1002.96,2047.29,2660.75,2597.88,2810.96,600.30,598.40,53.89,0000 0000 0000 0000 000000
2015-10-27 08:44:39,0.18,2.66,0.00,18.01,23.85,27.59,14.69,48.28,1002.95,2047.58,2658.84,2596.64,2809.24,599.72,597.83,53.94,0000 0000 0000 0000 000000
2015-10-27 08:49:40,0.10,2.67,0.00,18.01,23.83,27.56,14.70,48.30,1002.95,2047.78,2657.46,2595.72,2808.11,600.06,598.17,53.99,0000 0000 0000 0000 000000
2015-10-27 08:54:41,0.08,2.67,0.00,18.01,23.82,27.59,14.67,48.34,1002.96,2047.90,2656.21,2594.83,2807.16,599.97,598.00,54.04,0000 0000 0000 0000 000000
2015-10-27 08:59:43,0.07,2.68,0.00,18.01,23.82,27.55,14.71,48.58,1002.95,2047.97,2654.99,2594.00,2806.17,600.16,598.26,54.09,0000 0000 0000 0000 000000
2015-10-27 09:04:44,0.07,2.68,0.00,17.99,23.82,27.58,14.77,48.33,1002.94,2047.97,2653.91,2593.17,2805.30,599.70,597.85,54.14,0000 0000 0000 0000 000000
2015-10-27 09:09:45,0.07,2.69,0.00,18.00,23.82,27.56,14.85,48.74,1002.94,2047.97,2652.80,2592.48,2804.46,600.42,598.58,54.19,0000 0000 0000 0000 000000
2015-10-27 09:14:46,0.06,2.69,0.00,18.00,23.82,27.54,14.68,48.31,1002.94,2047.98,2651.69,2591.73,2803.61,599.73,597.66,54.24,0000 0000 0000 0000 000000
2015-10-27 09:19:48,0.06,2.69,0.00,18.02,23.81,27.58,14.71,48.27,1002.94,2047.98,2650.61,2590.94,2802.75,599.93,598.01,54.29,0000 0000 0000 0000 000000
2015-10-27 09:24:49,0.07,2.70,0.00,18.03,23.80,27.58,14.78,48.38,1002.94,2047.97,2649.49,2590.08,2801.86,600.56,598.53,54.34,0000 0000 0000 0000 000000
2015-10-27 09:29:50,0.07,2.70,0.00,18.04,23.80,27.54,14.73,48.06,1002.93,2047.99,2648.45,2589.39,2800.97,599.76,597.87,54.39,0000 0000 0000 0000 000000
2015-10-27 09:34:52,0.07,2.70,0.00,18.05,23.80,27.50,14.61,48.19,1002.56,2047.99,2647.37,2588.62,2800.10,599.80,597.64,54.44,0000 0000 0000 0000 000000
2015-10-27 09:39:53,0.06,2.71,0.00,18.07,23.80,27.57,14.78,48.47,1002.46,2047.98,2646.25,2587.85,2799.22,600.20,597.97,54.49,0000 0000 0000 0000 000000
2015-10-27 09:44:54,0.07,2.71,0.00,18.06,23.80,27.52,14.70,48.31,1002.33,2047.98,2645.10,2587.03,2798.17,600.08,597.70,54.55,0000 0000 0000 0000 000000
2015-10-27 09:49:56,0.07,2.72,0.00,18.07,23.80,27.50,14.65,48.23,1002.33,2047.98,2644.04,2586.16,2797.29,599.70,597.39,54.60,0000 0000 0000 0000 000000
2015-10-27 09:54:57,0.08,2.72,0.00,18.07,23.80,27.52,14.70,48.07,1002.38,2047.99,2642.85,2585.40,2796.42,599.98,597.57,54.65,0000 0000 0000 0000 000000
2015-10-27 09:59:58,0.08,2.72,0.00,18.05,23.80,27.50,14.73,48.16,1002.44,2047.99,2641.70,2584.56,2795.46,599.96,597.67,54.70,0000 0000 0000 0000 000000
2015-10-27 10:05:00,0.09,2.73,0.00,18.04,23.80,27.49,14.70,48.27,1002.37,2047.99,2640.40,2583.51,2794.41,599.88,597.66,54.75,0000 0000 0000 0000 000000
2015-10-27 10:10:01,0.10,2.73,0.00,18.05,23.80,27.52,14.75,48.38,1002.07,2047.99,2638.74,2582.30,2793.00,600.24,597.89,54.80,0000 0000 0000 0000 000000
2015-10-27 10:15:02,0.08,2.74,0.00,18.05,23.80,27.53,14.67,48.20,1001.98,2047.99,2637.33,2581.37,2791.86,600.42,597.91,54.85,0000 0000 0000 0000 000000
2015-10-27 10:20:03,0.07,2.74,0.00,18.06,23.80,27.50,14.69,48.27,1002.28,2048.00,2636.17,2580.61,2790.85,599.86,597.43,54.90,0000 0000 0000 0000 000000
2015-10-27 10:25:05,0.07,2.74,0.00,18.07,23.80,27.50,14.72,48.16,1002.46,2048.00,2635.01,2579.72,2789.85,600.34,598.08,54.95,0000 0000 0000 0000 000000
2015-10-27 10:30:06,0.08,2.75,0.00,18.08,23.80,27.52,14.71,48.15,1002.26,2048.00,2633.74,2578.86,2788.76,599.98,597.54,55.00,0000 0000 0000 0000 000000
2015-10-27 10:35:07,0.07,2.75,0.00,18.09,23.80,27.54,14.68,48.27,1002.10,2048.00,2632.61,2577.98,2787.79,599.56,597.00,55.05,0000 0000 0000 0000 000000
2015-10-27 10:40:08,0.08,2.76,0.00,18.10,23.81,27.53,14.72,48.28,1001.98,2048.00,2631.40,2577.09,2786.85,600.19,597.62,55.10,0000 0000 0000 0000 000000
2015-10-27 10:45:10,0.09,2.76,0.00,18.12,23.82,27.53,14.68,48.32,1001.98,2048.01,2630.13,2576.08,2785.67,600.19,597.51,55.15,0000 0000 0000 0000 000000
2015-10-27 10:50:11,0.09,2.77,0.00,18.12,23.82,27.51,14.65,48.17,1001.97,2048.00,2628.80,2575.04,2784.51,599.98,597.17,55.20,0000 0000 0000 0000 000000
2015-10-27 10:55:12,0.09,2.77,0.00,18.14,23.82,27.50,14.71,48.21,1001.98,2048.00,2627.54,2573.98,2783.45,600.19,597.44,55.25,0000 0000 0000 0000 000000
2015-10-27 11:00:14,0.12,2.78,0.00,18.14,23.82,27.51,14.65,48.31,1001.97,2048.00,2625.89,2572.72,2781.89,599.95,597.24,55.30,0000 0000 0000 0000 000000
2015-10-27 11:05:15,0.10,2.78,0.00,18.15,23.82,27.51,14.65,48.37,1001.97,2048.00,2624.37,2571.44,2780.43,599.80,597.06,55.35,0000 0000 0000 0000 000000
2015-10-27 11:10:16,0.12,2.79,0.00,18.17,23.83,27.51,14.69,48.35,1001.97,2048.00,2622.79,2569.86,2778.78,599.93,597.15,55.40,0000 0000 0000 0000 000000
2015-10-27 11:15:18,0.11,2.79,0.00,18.17,23.84,27.49,14.70,48.29,1001.97,2048.00,2621.22,2568.44,2777.27,600.29,597.44,55.45,0000 0000 0000 0000 000000
2015-10-27 11:20:19,0.08,2.80,0.00,18.17,23.85,27.51,14.68,48.43,1001.89,2048.01,2620.02,2567.26,2776.50,599.62,596.85,55.50,0000 0000 0000 0000 000000
2015-10-27 11:25:20,0.13,2.80,0.00,18.18,23.85,27.50,14.68,48.23,1001.63,2048.00,2618.40,2565.83,2774.96,599.89,596.95,55.56,0000 0000 0000 0000 000000
2015-10-27 11:30:21,0.11,2.81,0.00,18.18,23.85,27.53,14.66,48.38,1001.49,2048.01,2616.84,2564.61,2773.56,599.48,596.30,55.61,0000 0000 0000 0000 000000
2015-10-27 11:35:23,0.11,2.82,0.00,18.18,23.86,27.50,14.69,48.42,1001.43,2048.00,2615.21,2563.16,2771.89,599.96,596.81,55.66,0000 0000 0000 0000 000000
2015-10-27 11:40:24,0.14,2.82,0.00,18.17,23.87,27.51,14.70,48.39,1001.10,2048.00,2613.42,2561.51,2770.22,600.57,597.22,55.71,0000 0000 0000 0000 000000
2015-10-27 11:45:25,0.13,2.83,0.00,18.18,23.87,27.58,14.68,48.50,1001.18,2048.00,2611.78,2559.94,2768.58,599.97,596.71,55.76,0000 0000 0000 0000 000000
2015-10-27 11:50:27,0.13,2.84,0.00,18.19,23.87,27.55,14.64,48.43,1001.42,2048.00,2609.99,2558.42,2766.66,599.86,596.65,55.81,0000 0000 0000 0000 000000
2015-10-27 11:55:28,0.12,2.84,0.00,18.18,23.87,27.56,14.68,48.39,1001.48,2048.00,2608.42,2556.97,2764.97,600.23,597.16,55.86,0000 0000 0000 0000 000000
2015-10-27 12:00:29,0.16,2.85,0.00,18.18,23.88,27.56,14.62,48.33,1001.50,2047.99,2606.49,2555.27,2763.17,600.30,597.04,55.91,0000 0000 0000 0000 000000
2015-10-27 12:05:30,0.15,2.86,0.00,18.19,23.89,27.58,14.68,48.25,1001.49,2047.99,2604.36,2553.33,2761.09,600.15,596.98,55.96,0000 0000 0000 0000 000000
2015-10-27 12:10:32,0.18,2.87,0.00,18.19,23.90,27.60,14.68,48.40,1001.50,2047.99,2602.15,2551.30,2758.66,600.00,596.83,56.01,0000 0000 0000 0000 000000
2015-10-27 12:15:33,0.14,2.88,0.00,18.19,23.90,27.60,14.67,48.48,1001.48,2047.99,2600.26,2549.45,2756.78,599.97,596.86,56.06,0000 0000 0000 0000 000000
2015-10-27 12:20:35,0.16,2.88,0.00,18.21,23.90,27.59,14.64,48.28,1001.48,2047.99,2598.35,2547.66,2754.80,599.82,596.67,56.11,0000 0000 0000 0000 000000
2015-10-27 12:25:36,0.14,2.89,0.00,18.22,23.90,27.59,14.67,48.19,1001.48,2047.99,2596.50,2545.79,2752.82,600.29,596.92,56.16,0000 0000 0000 0000 000000
2015-10-27 12:30:37,0.19,2.90,0.00,18.24,23.90,27.63,14.64,48.33,1001.47,2048.00,2594.02,2543.86,2750.96,599.83,596.57,56.21,0000 0000 0000 0000 000000
2015-10-27 12:35:39,0.11,2.91,0.00,18.25,23.90,27.63,14.63,48.34,1001.48,2048.00,2591.89,2542.06,2749.31,600.08,596.81,56.26,0000 0000 0000 0000 000000
2015-10-27 12:40:40,0.13,2.91,0.00,18.27,23.90,27.64,14.67,48.34,1001.47,2048.00,2590.35,2540.74,2747.79,600.09,596.70,56.31,0000 0000 0000 0000 000000
2015-10-27 12:45:41,0.12,2.92,0.00,18.28,23.90,27.60,14.66,48.32,1001.47,2048.00,2588.66,2539.39,2746.18,599.96,596.65,56.36,0000 0000 0000 0000 000000
2015-10-27 12:50:42,0.10,2.93,0.00,18.29,23.92,27.62,14.72,48.37,1001.33,2048.00,2587.08,2538.05,2744.75,599.87,596.34,56.41,0000 0000 0000 0000 000000
2015-10-27 12:55:43,0.14,2.93,0.00,18.32,23.92,27.62,14.64,48.38,1001.00,2047.99,2585.33,2536.65,2743.27,600.25,596.56,56.46,0000 0000 0000 0000 000000